Regional Weather Roundup
Issued by NWS

Home | Current Version | Previous Version | Graphics & Text | Print | Product List | Glossary On
Versions: 1 2 3 4 5 6 7 8 9 10 11 12 13 14 15 16 17 18 19 20 21 22 23 24 25 26 27 28 29 30 31 32 33 34 35 36 37 38 39 40 41 42 43 44 45 46 47 48 49 50
000
ASUS43 KLSX 010659
RWRMO

WEATHER SUMMARY FOR MISSOURI
NATIONAL WEATHER SERVICE SPRINGFIELD MO
200 AM CDT SAT AUG 01 2015

NOTE: "FAIR" INDICATES FEW OR NO CLOUDS BELOW 12,000 FEET WITH NO
       SIGNIFICANT WEATHER AND/OR OBSTRUCTIONS TO VISIBILITY.
       CURRENT SKY AND/OR WEATHER CONDITIONS ARE NOT AVAILABLE FOR
       CHILLICOTHE AND FARMINGTON.

MOZ001>031-035>038-043-044-053-054-010800-
...NORTHERN AND WESTERN MISSOURI...

CITY           SKY/WX    TMP DP  RH WIND       PRES   REMARKS
KANSAS CTY INT PTCLDY    73  68  84 S8        30.06F
KANSAS C DTWN  CLEAR     77  71  82 CALM      30.05F
LEE`S SUMMIT   CLEAR     75  66  73 S5        30.08F
ST JOSEPH      PTCLDY    73  71  93 CALM      30.05F
CHILLICOTHE      N/A     74  67  78 CALM      30.06F
KIRKSVILLE     CLEAR     74  68  81 NE5       30.07F

$$
MOZ066>068-077>081-088>096-101>105-010800-
...SOUTHWEST MISSOURI...

CITY           SKY/WX    TMP DP  RH WIND       PRES   REMARKS
SPRINGFIELD    CLEAR     69  60  73 CALM      30.09F
JOPLIN         PTCLDY    64  59  83 CALM      30.09F

$$
MOZ032>034-039>042-045>050-055>058-069>072-010800-
...CENTRAL MISSOURI...

CITY           SKY/WX    TMP DP  RH WIND       PRES   REMARKS
COLUMBIA       PTCLDY    73  68  84 CALM      30.07F
JEFFERSON CITY PTCLDY    70  67  90 CALM      30.06S
ROLLA          CLEAR     67  64  90 SW7       30.07S
SEDALIA        PTCLDY    73  66  78 W3        30.08F
WHITEMAN AFB   CLEAR     73  65  75 SW6       30.06F
WARRENSBURG    CLEAR     70  66  88 S5        30.07S
OSAGE BEACH    CLEAR     68  64  88 CALM      30.08S

$$
MOZ051-052-059>065-010800-
...EAST CENTRAL MISSOURI...

CITY           SKY/WX    TMP DP  RH WIND       PRES   REMARKS
ST LOUIS INTL  MOCLDY    78  67  68 CALM      30.04F
SPIRIT OF STL  PTCLDY    70  68  93 CALM      30.03F
ST CHARLES     MOCLDY    74  71  91 CALM      30.03F

$$
MOZ072>076-082>087-097>100-106>115-010800-
...SOUTH CENTRAL AND SOUTHEAST MISSOURI...

CITY           SKY/WX    TMP DP  RH WIND       PRES   REMARKS
CAPE GIRARDEAU CLEAR     68  67  96 SW3       30.03F
FARMINGTON     CLEAR     64  63  94 CALM      30.10F
POPLAR BLUFF   CLEAR     72  70  93 CALM      30.03F
WEST PLAINS    CLEAR     68  63  84 CALM      30.11F

$$



USA.gov is the U.S. government's official web portal to all federal, state and local government web resources and services.